Time,TemperatureF,DewpointF,PressureIn,WindDirection,WindDirectionDegrees,WindSpeedMPH,WindSpeedGustMPH,Humidity,HourlyPrecipIn,Conditions,Clouds,dailyrainin,SoftwareType,DateUTC
2013-05-01 00:01:00,35.0,30.0,-100.00,East,90,1.0,5.0,81,-99.99,,,-99.99,,2013-05-01 07:01:00,
2013-05-01 01:01:00,33.0,29.0,-100.00,East,90,1.0,6.0,85,-99.99,,,-99.99,,2013-05-01 08:01:00,
2013-05-01 02:01:00,31.0,29.0,-100.00,East,90,1.0,6.0,92,-99.99,,,-99.99,,2013-05-01 09:01:00,
2013-05-01 03:02:00,29.0,28.0,-100.00,ESE,105,1.0,2.0,95,-99.99,,,-99.99,,2013-05-01 10:02:00,
2013-05-01 04:02:00,28.0,27.0,-100.00,WNW,285,1.0,3.0,95,-99.99,,,-99.99,,2013-05-01 11:02:00,
2013-05-01 06:01:00,27.0,27.0,-100.00,East,90,1.0,3.0,100,-99.99,,,-99.99,,2013-05-01 13:01:00,
2013-05-01 07:02:00,28.0,28.0,-100.00,WSW,250,1.0,3.0,100,-99.99,,,-99.99,,2013-05-01 14:02:00,
2013-05-01 08:01:00,30.0,29.0,-100.00,North,5,1.0,3.0,96,-99.99,,,-99.99,,2013-05-01 15:01:00,
2013-05-01 09:03:00,37.0,32.0,-100.00,NNW,330,1.0,2.0,81,-99.99,,,-99.99,,2013-05-01 16:03:00,
2013-05-01 10:02:00,46.0,33.0,-100.00,NE,50,2.0,6.0,60,-99.99,,,-99.99,,2013-05-01 17:02:00,
2013-05-01 11:01:00,52.0,36.0,-100.00,NNE,30,1.0,6.0,54,-99.99,,,-99.99,,2013-05-01 18:01:00,
2013-05-01 12:02:00,56.0,36.0,-100.00,SE,135,6.0,7.0,46,-99.99,,,-99.99,,2013-05-01 19:02:00,
2013-05-01 13:01:00,58.0,32.0,-100.00,NE,45,1.0,6.0,37,-99.99,,,-99.99,,2013-05-01 20:01:00,
2013-05-01 14:01:00,60.0,32.0,-100.00,NNE,15,5.0,7.0,34,-99.99,,,-99.99,,2013-05-01 21:01:00,
2013-05-01 15:03:00,59.0,34.0,-100.00,SSE,155,2.0,7.0,38,-99.99,,,-99.99,,2013-05-01 22:03:00,
2013-05-01 16:02:00,61.0,34.0,-100.00,South,190,5.0,8.0,36,-99.99,,,-99.99,,2013-05-01 23:02:00,
2013-05-01 17:01:00,60.0,34.0,-100.00,SE,140,7.0,12.0,37,-99.99,,,-99.99,,2013-05-02 00:01:00,
2013-05-01 18:01:00,59.0,34.0,-100.00,SSE,150,6.0,10.0,38,-99.99,,,-99.99,,2013-05-02 01:01:00,
2013-05-01 19:01:00,59.0,33.0,-100.00,SSE,155,7.0,12.0,37,-99.99,,,-99.99,,2013-05-02 02:01:00,
2013-05-01 20:01:00,55.0,35.0,-100.00,SSE,155,3.0,6.0,46,-99.99,,,-99.99,,2013-05-02 03:01:00,
2013-05-01 21:03:00,48.0,38.0,-100.00,SE,130,3.0,5.0,68,-99.99,,,-99.99,,2013-05-02 04:03:00,
2013-05-01 22:02:00,46.0,38.0,-100.00,SSE,165,1.0,3.0,73,-99.99,,,-99.99,,2013-05-02 05:02:00,
2013-05-01 23:01:00,44.0,35.0,-100.00,SE,145,1.0,3.0,70,-99.99,,,-99.99,,2013-05-02 06:01:00,